Sand Springs, OK

3:23 PM CST on December 03, 2016 (GMT -0600)
Sand Springs William R. Pogue

Weather History for KOWP - December, 2013

Change the Weather History Date:

Friday, December 20, 2013

  Actual Average (KTUL) Record (KTUL)
Temperature  
Mean Temperature 46 °F 38 °F  
Max Temperature 62 °F 48 °F 75 °F (1966)
Min Temperature 30 °F 29 °F 3 °F (1924)
Degree Days  
Heating Degree Days 19 27  
Month to date heating degree days 493  
Since 1 July heating degree days 1129  
Moisture  
Dew Point 31 °F    
Average Humidity 75    
Maximum Humidity 88    
Minimum Humidity 62    
Precipitation  
Precipitation 0.22 in 0.08 in 1.83 in (2006)
Month to date precipitation 1.69  
Year to date precipitation 40.17  
Sea Level Pressure  
Sea Level Pressure 29.87 in    
Wind  
Wind Speed 5 mph (WNW)    
Max Wind Speed 14 mph    
Max Gust Speed 23 mph    
Visibility 8 miles    
Events Snow , Thunderstorm    
T = Trace of Precipitation, MM = Missing Value Source: NWS Daily Summary

Daily Weather History Graph

Daily Weather History Graph

Search for Another Location

Airport or City:

Trip Planner

Search our weather history database for the weather conditions in past years. The results will help you decide how hot, cold, wet, or windy it might be!

Date:

Astronomy

Dec. 20, 2013 Rise Set
Actual Time 7:31 AM CST 5:13 PM CST
Civil Twilight 7:02 AM CST 5:42 PM CST
Nautical Twilight 6:30 AM CST 6:14 PM CST
Astronomical Twilight 5:59 AM CST 6:45 PM CST
Moon 8:29 PM CST (12/20) 9:30 AM CST (12/20)
Length of Visible Light 10h 39m
Length of Day
9h 41m
Waning Gibbous, 90% of the Moon is Illuminated
Dec 20
Waning Gibbous
Dec 25
Last Quarter
Jan 1
New
Jan 7
First Quarter
Jan 15
Full

Hourly Weather History & Observations

Time (CST) Temp. Windchill Dew Point Humidity Pressure Visibility Wind Dir Wind Speed Gust Speed Precip Events Conditions
12:15 AM 62.8 °F - 56.3 °F 79% 29.67 in 10.0 mi South 5.8 mph - N/A   Clear
12:35 AM 62.8 °F - 56.5 °F 80% 29.67 in 10.0 mi South 3.5 mph - N/A   Clear
12:55 AM 62.6 °F - 56.3 °F 80% 29.66 in 10.0 mi South 10.4 mph 17.3 mph N/A   Clear
1:15 AM 62.1 °F - 56.5 °F 82% 29.66 in 10.0 mi SSW 5.8 mph - N/A   Clear
1:35 AM 61.9 °F - 56.5 °F 82% 29.67 in 10.0 mi South 4.6 mph - N/A   Clear
1:55 AM 61.7 °F - 56.3 °F 82% 29.67 in 10.0 mi SSW 5.8 mph - N/A   Clear
2:15 AM 61.2 °F - 56.3 °F 84% 29.67 in 10.0 mi Calm Calm - N/A   Clear
2:35 AM 61.0 °F - 56.3 °F 85% 29.68 in 10.0 mi Calm Calm - N/A   Clear
2:55 AM 60.8 °F - 55.9 °F 84% 29.70 in 10.0 mi Calm Calm - N/A   Clear
3:15 AM 60.8 °F - 55.8 °F 83% 29.70 in 10.0 mi SSW 6.9 mph - N/A   Clear
3:35 AM 59.9 °F - 55.4 °F 85% 29.71 in 10.0 mi Calm Calm - N/A   Scattered Clouds
3:55 AM 59.5 °F - 55.4 °F 86% 29.72 in 10.0 mi Calm Calm - N/A   Mostly Cloudy
4:15 AM 60.8 °F - 55.4 °F 82% 29.73 in 10.0 mi Calm Calm - N/A   Overcast
4:35 AM 60.8 °F - 55.0 °F 81% 29.74 in 10.0 mi Calm Calm - N/A   Overcast
4:55 AM 57.2 °F - 50.0 °F 77% 29.76 in 10.0 mi WNW 10.4 mph 17.3 mph N/A   Overcast
5:15 AM 46.9 °F - 39.9 °F 77% 29.79 in 10.0 mi NW 10.4 mph 20.7 mph N/A   Overcast
5:35 AM 42.8 °F 35.8 °F 34.3 °F 72% 29.82 in 10.0 mi WNW 13.8 mph 20.7 mph N/A   Overcast
5:55 AM 40.6 °F 33.4 °F 31.6 °F 70% 29.84 in 7.0 mi WNW 12.7 mph 19.6 mph N/A   Overcast
6:15 AM 37.8 °F 29.8 °F 29.5 °F 72% 29.86 in 7.0 mi WNW 12.7 mph 23.0 mph N/A   Overcast
6:35 AM 35.4 °F 26.8 °F 28.4 °F 76% 29.87 in 7.0 mi NW 12.7 mph 18.4 mph N/A   Overcast
6:55 AM 33.4 °F 24.3 °F 27.9 °F 80% 29.90 in 5.0 mi NW 12.7 mph 20.7 mph N/A   Haze
7:15 AM 32.4 °F 24.6 °F 27.9 °F 83% 29.92 in 5.0 mi WNW 9.2 mph - N/A   Overcast
7:35 AM 31.8 °F 23.9 °F 27.7 °F 85% 29.92 in 4.0 mi NNW 9.2 mph 17.3 mph N/A   Overcast
7:55 AM 31.1 °F 21.9 °F 27.1 °F 85% 29.92 in 4.0 mi NW 11.5 mph 17.3 mph N/A   Overcast
8:15 AM 30.7 °F 22.0 °F 26.8 °F 85% 29.92 in 7.0 mi NW 10.4 mph 19.6 mph N/A   Overcast
8:35 AM 30.2 °F 25.4 °F 25.7 °F 83% 29.92 in 10.0 mi NW 4.6 mph 17.3 mph N/A   Overcast
8:55 AM 30.2 °F - 25.5 °F 83% 29.92 in 10.0 mi Calm Calm - N/A   Overcast
9:15 AM 30.2 °F 26.7 °F 24.8 °F 80% 29.93 in 10.0 mi NNW 3.5 mph 9.2 mph N/A   Overcast
9:35 AM 30.6 °F 21.8 °F 23.7 °F 76% 29.95 in 10.0 mi NW 10.4 mph 16.1 mph N/A   Overcast
9:55 AM 30.7 °F 26.0 °F 23.7 °F 75% 29.97 in 10.0 mi NW 4.6 mph - N/A   Overcast
10:15 AM 30.9 °F 27.5 °F 23.4 °F 74% 29.99 in 10.0 mi NNW 3.5 mph - N/A   Overcast
10:35 AM 30.7 °F 22.6 °F 22.6 °F 72% 29.99 in 10.0 mi NW 9.2 mph - N/A   Overcast
10:55 AM 30.9 °F 22.2 °F 22.1 °F 70% 29.98 in 10.0 mi NW 10.4 mph 16.1 mph N/A   Overcast
11:15 AM 31.3 °F 22.7 °F 22.8 °F 71% 29.98 in 10.0 mi NW 10.4 mph 16.1 mph N/A   Overcast
11:35 AM 31.1 °F 23.7 °F 22.5 °F 70% 29.97 in 10.0 mi NW 8.1 mph - N/A   Overcast
11:55 AM 31.8 °F 24.6 °F 22.5 °F 68% 29.96 in 10.0 mi NW 8.1 mph - N/A   Overcast
12:15 PM 31.8 °F 26.2 °F 21.9 °F 67% 29.94 in 10.0 mi NNW 5.8 mph - N/A   Overcast
12:35 PM 32.4 °F 24.0 °F 22.1 °F 66% 29.94 in 10.0 mi NNW 10.4 mph - N/A   Overcast
12:55 PM 32.2 °F 25.0 °F 21.7 °F 65% 29.94 in 10.0 mi North 8.1 mph - N/A   Overcast
1:15 PM 32.0 °F - 21.2 °F 64% 29.93 in 10.0 mi Calm Calm - N/A   Overcast
1:35 PM 32.0 °F 26.4 °F 21.4 °F 65% 29.92 in 10.0 mi NW 5.8 mph - N/A   Overcast
1:55 PM 32.0 °F - 20.5 °F 63% 29.93 in 10.0 mi Calm Calm - N/A   Overcast
2:15 PM 32.0 °F - 20.3 °F 62% 29.93 in 10.0 mi Calm Calm - N/A   Overcast
2:35 PM 31.6 °F - 21.2 °F 65% 29.93 in 7.0 mi Calm Calm - N/A   Overcast
2:55 PM 31.1 °F - 21.7 °F 68% 29.92 in 7.0 mi Calm Calm - N/A   Overcast
3:15 PM 31.6 °F - 21.9 °F 67% 29.93 in 10.0 mi Calm Calm - N/A   Overcast
3:35 PM 31.8 °F - 21.2 °F 65% 29.93 in 10.0 mi Calm Calm - N/A   Overcast
3:55 PM 32.0 °F - 21.0 °F 64% 29.93 in 10.0 mi Calm Calm - N/A   Overcast
4:15 PM 32.0 °F - 21.0 °F 64% 29.94 in 10.0 mi Calm Calm - N/A   Overcast
4:35 PM 32.0 °F - 20.8 °F 63% 29.95 in 10.0 mi Calm Calm - N/A   Overcast
4:55 PM 32.0 °F - 20.3 °F 62% 29.94 in 10.0 mi Calm Calm - N/A   Overcast
5:15 PM 32.0 °F - 20.3 °F 62% 29.93 in 10.0 mi Calm Calm - N/A   Overcast
5:35 PM 32.0 °F - 20.3 °F 62% 29.91 in 10.0 mi Calm Calm - N/A   Overcast
5:55 PM 32.0 °F - 20.5 °F 63% 29.91 in 10.0 mi Calm Calm - N/A   Overcast
6:15 PM 32.0 °F - 20.5 °F 63% 29.91 in 10.0 mi Calm Calm - N/A   Overcast
6:35 PM 32.0 °F - 20.5 °F 63% 29.90 in 10.0 mi Calm Calm - N/A   Overcast
6:55 PM 32.4 °F - 21.4 °F 64% 29.90 in 10.0 mi Calm Calm - N/A   Overcast
7:15 PM 32.0 °F - 22.3 °F 67% 29.91 in 10.0 mi Calm Calm - N/A   Overcast
7:35 PM 32.0 °F - 23.2 °F 70% 29.91 in 7.0 mi Calm Calm - N/A   Overcast
7:55 PM 31.8 °F - 24.3 °F 74% 29.90 in 7.0 mi Calm Calm - N/A   Overcast
8:15 PM 31.8 °F - 24.4 °F 74% 29.89 in 5.0 mi Calm Calm - N/A   Overcast
8:35 PM 31.6 °F - 25.0 °F 76% 29.89 in 5.0 mi Calm Calm - 0.01 in   Overcast
8:55 PM 31.8 °F - 25.7 °F 78% 29.89 in 4.0 mi Calm Calm - 0.02 in Snow Light Snow
9:15 PM 31.8 °F - 26.2 °F 80% 29.87 in 4.0 mi Calm Calm - 0.01 in Snow Light Snow
9:35 PM 31.5 °F - 25.9 °F 80% 29.87 in 7.0 mi Calm Calm - 0.01 in   Overcast
9:55 PM 31.6 °F 27.0 °F 26.6 °F 82% 29.88 in 3.0 mi North 4.6 mph - 0.03 in Snow Light Snow
10:15 PM 31.8 °F 24.6 °F 27.5 °F 84% 29.84 in 2.5 mi North 8.1 mph - 0.04 in Snow Light Snow
10:35 PM 31.5 °F - 27.0 °F 83% 29.83 in 5.0 mi Calm Calm - 0.06 in Snow Light Snow
10:55 PM 31.5 °F - 27.3 °F 85% 29.86 in 3.0 mi Calm Calm - 0.09 in Snow Light Snow
11:15 PM 31.5 °F - 27.7 °F 86% 29.87 in 2.5 mi Calm Calm - 0.04 in Snow Light Snow
11:35 PM 31.8 °F - 28.6 °F 88% 29.86 in 2.5 mi Calm Calm - 0.07 in Thunderstorm Overcast
11:55 PM 31.5 °F - 27.9 °F 87% 29.83 in 7.0 mi Calm Calm - 0.08 in   Overcast